This is the latest recevied weather packets stored in our database for station/object VK2XSE. If no packets are shown the sender has not sent any weather packets the latest 10 day(s).
| Time | Temp. | Humidity | Pressure | Rain* | Wind** | Luminosity | Snow |
|---|---|---|---|---|---|---|---|
| 1777545318 | 17.78° C | 52% | 1025.4 hPa | 0 mm | - | 0 W/m² | - |
| 1777544717 | 18.33° C | 51% | 1025.2 hPa | 0 mm | - | 0 W/m² | - |
| 1777544117 | 18.89° C | 50% | 1025.3 hPa | 0 mm | - | 0 W/m² | - |
| 1777543517 | 18.89° C | 50% | 1025.2 hPa | 0 mm | - | 0 W/m² | - |
| 1777542917 | 19.44° C | 49% | 1025.1 hPa | 0 mm | - | 0 W/m² | - |
| 1777542317 | 19.44° C | 49% | 1025.1 hPa | 0 mm | - | 0 W/m² | - |
| 1777541717 | 20° C | 48% | 1025 hPa | 0 mm | - | 0 W/m² | - |
| 1777541117 | 20° C | 48% | 1025 hPa | 0 mm | - | 0 W/m² | - |
| 1777540517 | 20.56° C | 48% | 1025 hPa | 0 mm | - | 0 W/m² | - |
| 1777539917 | 20.56° C | 47% | 1024.9 hPa | 0 mm | - | 0 W/m² | - |
| 1777539317 | 21.11° C | 47% | 1024.8 hPa | 0 mm | - | 0 W/m² | - |
| 1777538717 | 21.11° C | 45% | 1024.9 hPa | 0 mm | - | 0 W/m² | - |
| 1777538117 | 21.67° C | 44% | 1024.8 hPa | 0 mm | - | 0 W/m² | - |
| 1777537517 | 22.22° C | 44% | 1024.7 hPa | 0 mm | - | 0 W/m² | - |
| 1777536917 | 22.78° C | 43% | 1024.6 hPa | 0 mm | - | 0 W/m² | - |
| 1777536317 | 23.33° C | 42% | 1024.7 hPa | 0 mm | - | 0 W/m² | - |
| 1777535717 | 23.33° C | 42% | 1024.6 hPa | 0 mm | - | 0 W/m² | - |
| 1777535117 | 24.44° C | 40% | 1024.6 hPa | 0 mm | - | 0 W/m² | - |
| 1777534517 | 25° C | 40% | 1024.6 hPa | 0 mm | - | 3 W/m² | - |
| 1777533917 | 25.56° C | 38% | 1024.6 hPa | 0 mm | - | 13 W/m² | - |
| 1777533317 | 26.11° C | 36% | 1024.6 hPa | 0 mm | - | 24 W/m² | - |
| 1777532717 | 26.11° C | 37% | 1024.6 hPa | 0 mm | - | 38 W/m² | - |
| 1777532117 | 26.67° C | 36% | 1024.6 hPa | 0 mm | - | 77 W/m² | - |
| 1777531517 | 26.67° C | 36% | 1024.6 hPa | 0 mm | - | 120 W/m² | - |
| 1777530917 | 26.67° C | 36% | 1024.6 hPa | 0 mm | - | 117 W/m² | - |
* Rain latest hour (hover to see other rain measurements)
** Current wind speed in m/s (hover to see current wind gust speed)